TimeEDT,TemperatureF,Dew PointF,Humidity,Sea Level PressureIn,VisibilityMPH,Wind Direction,Wind SpeedMPH,Gust SpeedMPH,PrecipitationIn,Events,Conditions,WindDirDegrees,DateUTC
12:03 AM,77.0,71.6,83,29.95,10.0,NE,16.1,-,N/A,,Mostly Cloudy,40,2012-10-24 04:03:00
12:53 AM,75.9,72.0,87,29.94,10.0,ENE,8.1,-,0.02,,Mostly Cloudy,70,2012-10-24 04:53:00
1:53 AM,79.0,71.1,77,29.91,10.0,East,15.0,20.7,0.00,,Scattered Clouds,80,2012-10-24 05:53:00
2:53 AM,79.0,70.0,74,29.90,10.0,East,12.7,24.2,N/A,,Scattered Clouds,80,2012-10-24 06:53:00
3:53 AM,79.0,69.1,72,29.88,10.0,East,16.1,24.2,N/A,,Partly Cloudy,80,2012-10-24 07:53:00
4:18 AM,78.8,71.6,78,29.88,10.0,ENE,17.3,25.3,N/A,,Mostly Cloudy,70,2012-10-24 08:18:00
4:45 AM,78.8,71.6,78,29.87,10.0,East,16.1,23.0,N/A,,Scattered Clouds,80,2012-10-24 08:45:00
4:53 AM,79.0,71.1,77,29.88,10.0,ENE,15.0,21.9,N/A,,Scattered Clouds,70,2012-10-24 08:53:00
5:53 AM,79.0,72.0,79,29.88,10.0,ENE,15.0,23.0,N/A,,Scattered Clouds,70,2012-10-24 09:53:00
6:44 AM,77.0,71.6,83,29.89,4.0,ENE,16.1,32.2,0.03,Rain,Rain,70,2012-10-24 10:44:00
6:53 AM,78.1,73.0,84,29.90,8.0,East,15.0,-,0.03,Rain,Light Rain,80,2012-10-24 10:53:00
7:04 AM,78.8,73.4,83,29.90,10.0,East,16.1,26.5,N/A,,Mostly Cloudy,80,2012-10-24 11:04:00
7:53 AM,79.0,73.9,84,29.90,10.0,East,15.0,-,0.01,,Mostly Cloudy,80,2012-10-24 11:53:00
8:53 AM,80.1,73.9,81,29.91,10.0,East,23.0,31.1,0.07,,Mostly Cloudy,80,2012-10-24 12:53:00
9:31 AM,82.4,71.6,70,29.92,10.0,ENE,20.7,27.6,N/A,,Mostly Cloudy,70,2012-10-24 13:31:00
9:53 AM,82.0,71.1,69,29.93,10.0,East,17.3,29.9,N/A,,Scattered Clouds,80,2012-10-24 13:53:00
10:53 AM,82.9,70.0,65,29.94,10.0,ENE,19.6,27.6,N/A,,Scattered Clouds,70,2012-10-24 14:53:00
11:53 AM,84.0,70.0,63,29.93,10.0,East,23.0,27.6,N/A,,Mostly Cloudy,80,2012-10-24 15:53:00
12:53 PM,84.0,69.1,61,29.90,10.0,ENE,16.1,26.5,N/A,,Partly Cloudy,60,2012-10-24 16:53:00
1:53 PM,84.9,69.1,59,29.88,10.0,ENE,20.7,28.8,N/A,,Partly Cloudy,60,2012-10-24 17:53:00
2:53 PM,84.0,66.9,56,29.86,10.0,NE,25.3,28.8,N/A,,Partly Cloudy,50,2012-10-24 18:53:00
3:53 PM,82.9,69.1,63,29.84,10.0,NE,21.9,28.8,N/A,,Scattered Clouds,50,2012-10-24 19:53:00
4:53 PM,82.0,70.0,67,29.83,10.0,ENE,19.6,28.8,N/A,,Mostly Cloudy,60,2012-10-24 20:53:00
5:53 PM,81.0,69.1,67,29.84,10.0,ENE,19.6,29.9,N/A,,Mostly Cloudy,60,2012-10-24 21:53:00
6:53 PM,78.1,72.0,81,29.83,10.0,ENE,19.6,27.6,0.00,Rain,Light Rain,70,2012-10-24 22:53:00
7:53 PM,79.0,71.1,77,29.85,10.0,ENE,12.7,-,0.00,,Mostly Cloudy,70,2012-10-24 23:53:00
8:53 PM,81.0,71.1,72,29.85,10.0,ENE,17.3,27.6,N/A,,Mostly Cloudy,60,2012-10-25 00:53:00
9:53 PM,81.0,72.0,74,29.84,10.0,ENE,20.7,28.8,0.00,,Scattered Clouds,60,2012-10-25 01:53:00
10:13 PM,80.6,71.6,74,29.84,10.0,ENE,21.9,28.8,N/A,,Overcast,60,2012-10-25 02:13:00
10:35 PM,78.8,71.6,78,29.84,10.0,ENE,15.0,21.9,0.00,Rain,Light Rain,70,2012-10-25 02:35:00
10:53 PM,80.1,72.0,76,29.84,10.0,ENE,18.4,25.3,0.00,,Scattered Clouds,70,2012-10-25 02:53:00
11:53 PM,80.1,72.0,76,29.83,10.0,East,13.8,-,N/A,,Overcast,80,2012-10-25 03:53:00